User: anonymous   Login
Location: Unspecified
(0.0000°N, 0.0000°E)
Time: 07:53:37
(UTC+00:00)
Language:

COSMOS 2390 - Orbit

View from above orbital plane
View from above orbital plane
View from above satellite
View from above satellite

Ground track
Ground track

The orbit data is extracted from the following two-line orbital elements,

1 27464U 02036A   17328.70139773  .00000021  00000-0  81005-4 0  9993
2 27464  82.4808 139.7385 0024038 256.8834 102.9557 12.44565546698895
Epoch (UTC): 24 November 2017 16:50:00
Eccentricity: 0.0024038
inclination: 82.4808°
perigee height: 1468 km
apogee height: 1506 km
right ascension of ascending node: 139.7385°
argument of perigee: 256.8834°
revolutions per day: 12.44565546
mean anomaly at epoch: 102.9557°
orbit number at epoch: 69889

The dashed part of the orbit path shows where the satellite is in the earth's shadow,  

DLR